Regional Weather Roundup
Issued by NWS

Home | Current Version | Previous Version | Graphics & Text | Print | Product List | Glossary On
Versions: 1 2 3 4 5 6 7 8 9 10 11 12 13 14 15 16 17 18 19 20 21 22 23 24 25 26 27 28 29 30 31 32 33 34 35 36 37 38 39 40 41 42 43 44 45 46 47 48 49 50
606
ASUS43 KLMK 260810
RWRKY
KENTUCKY REGIONAL WEATHER ROUNDUP
NATIONAL WEATHER SERVICE LOUISVILLE KY
400 AM EDT MON SEP 26 2016

NOTE "FAIR" INDICATES FEW OR NO CLOUDS BELOW 12,000 FEET
WITH NO SIGNIFICANT WEATHER AND/OR OBSTRUCTIONS TO VISIBILITY.

KYZ001>023-026-027-061>063-070>075-260900-
WESTERN AND SOUTH CENTRAL KENTUCKY

CITY           SKY/WX    TMP DP  RH WIND       PRES   REMARKS
PADUCAH        MOCLDY    74  69  85 NW10G20   30.00R
HENDERSON      PTCLDY    73  66  78 W9        29.97S
OWENSBORO      NOT AVBL
HOPKINSVILLE   CLEAR     70  67  92 CALM      29.97F
BOWLING GREEN  CLEAR     68  66  93 CALM      29.98F
GLASGOW        CLEAR    N/A N/A N/A CALM      29.99F HAZE
$$

KYZ024-025-028>034-038-045-046-053-260900-
NORTH CENTRAL KENTUCKY

CITY           SKY/WX    TMP DP  RH WIND       PRES   REMARKS
LOUISVILLE/SDF CLEAR     72  66  81 CALM      29.96F
LOUISVILLE/LOU CLEAR     71  66  84 CALM      29.96F
FORT KNOX      CLEAR     67  64  91 SW3       29.96F
$$

KYZ035>037-039>044-047>052-055>060-089>105-260900-
NORTHEAST KENTUCKY

CITY           SKY/WX    TMP DP  RH WIND       PRES   REMARKS
LEXINGTON      CLEAR     69  64  84 S6        29.99F
COVINGTON      CLEAR     71  65  81 S7        29.97F
FRANKFORT      CLEAR     66  63  90 CALM      29.97F
$$

KYZ054-064>069-076>088-106>120-260900-
SOUTHEAST KENTUCKY

CITY           SKY/WX    TMP DP  RH WIND       PRES   REMARKS
JACKSON        CLEAR     69  64  84 CALM      30.03F
LONDON         MOCLDY    67  64  90 CALM      30.03F
SOMERSET       CLEAR     63  63 100 CALM      30.03F
MIDDLESBORO    CLEAR     64  64 100 CALM      30.06S
MONTICELLO     SUNNY     64  62  93 N8        30.04F
$$





USA.gov is the U.S. government's official web portal to all federal, state and local government web resources and services.